This demonstration page uses our WeatherBlox Daily Observations layout. Learn more.

Left ArrowRight Arrow

44.89941, -97.11507

Hourly Observations for September 5, 2018

Temp ( °F °C ) Dew Point ( °F °C ) Humidity (%) Winds ( mph kmh ) Pressure ( in mb ) Visibility ( mi km ) Precip ( " mm )
12:53 am 00:53 Cloudy 63 17.2 51 10.6 65 65 N 17 28 30.06 1018 10 16 0.00 0.00
1:29 am 01:29 Cloudy 63 17.2 51 10.6 65 65 N 14 22 30.03 1017 10 16 0.00 0.00
1:53 am 01:53 Mostly Cloudy 62 16.7 50 10 65 65 NNE 17 28 30.07 1018 10 16 0.00 0.00
2:53 am 02:53 Mostly Cloudy 62 16.7 51 10.6 67 67 NNE 14 22 30.08 1019 10 16 0.00 0.00
3:53 am 03:53 Mostly Cloudy 61 16.1 51 10.6 70 70 NNE 13 20 30.11 1020 10 16 0.00 0.00
4:53 am 04:53 Clear 58 14.4 50 10 75 75 N 12 19 30.13 1020 10 16 0.00 0.00
5:53 am 05:53 Clear 56 13.3 51 10.6 84 84 N 12 19 30.16 1021 10 16 0.00 0.00
6:53 am 06:53 Cloudy 57 13.9 51 10.6 81 81 NNE 10 17 30.19 1022 10 16 0.00 0.00
7:53 am 07:53 Partly Cloudy 57 13.9 51 10.6 81 81 NNE 10 17 30.22 1023 10 16 0.00 0.00
8:53 am 08:53 Cloudy 58 14.4 50 10 75 75 NNE 13 20 30.24 1024 10 16 0.00 0.00
9:53 am 09:53 Cloudy 60 15.6 50 10 70 70 NNE 14 22 30.26 1025 10 16 0.00 0.00
10:53 am 10:53 Sunny 62 16.7 50 10 65 65 NNE 16 26 30.28 1025 10 16 0.00 0.00
11:53 am 11:53 Sunny 63 17.2 49 9.4 60 60 NNE 16 26 30.29 1026 10 16 0.00 0.00
12:53 pm 12:53 Sunny 64 17.8 49 9.4 58 58 NNE 17 28 30.30 1026 10 16 0.00 0.00
1:53 pm 13:53 Sunny 66 18.9 50 10 56 56 NE 13 20 30.30 1026 10 16 0.00 0.00
2:53 pm 14:53 Sunny 68 20 49 9.4 51 51 NNE 14 22 30.29 1026 10 16 0.00 0.00
3:53 pm 15:53 Sunny 69 20.6 48 8.9 47 47 NNE 15 24 30.30 1026 10 16 0.00 0.00
4:53 pm 16:53 Sunny 69 20.6 47 8.3 45 45 NNE 12 19 30.30 1026 10 16 0.00 0.00
5:53 pm 17:53 Sunny 68 20 45 7.2 44 44 NNE 10 17 30.31 1027 10 16 0.00 0.00
6:53 pm 18:53 Sunny 65 18.3 46 7.8 51 51 NE 10 17 30.32 1027 10 16 0.00 0.00
7:53 pm 19:53 Sunny 59 15 49 9.4 69 69 NE 6 9 30.33 1027 10 16 0.00 0.00
8:53 pm 20:53 Clear 57 13.9 49 9.4 74 74 NE 5 7 30.35 1028 10 16 0.00 0.00
9:53 pm 21:53 Clear 55 12.8 48 8.9 77 77 NNE 6 9 30.37 1028 10 16 0.00 0.00
10:53 pm 22:53 Clear 52 11.1 47 8.3 83 83 NNE 5 7 30.37 1029 10 16 0.00 0.00
11:53 pm 23:53 Clear 49 9.4 46 7.8 90 90 NNE 6 9 30.38 1029 10 16 0.00 0.00

Powered by AerisWeather